Weather Roundup
Issued by NWS Chicago, IL

Home | Current Version | Previous Version | Text Only | Print | Product List | Glossary Off
Versions: 1 2 3 4 5 6 7 8 9 10 11 12 13 14 15 16 17 18 19 20 21 22 23 24 25 26 27 28 29 30 31 32 33 34 35 36 37 38 39 40 41 42 43 44 45 46 47 48 49 50

000
NZUS59 KLOT 210903
HRRLOT

CHICAGO AREA WEATHER ROUNDUP
NATIONAL WEATHER SERVICE CHICAGO/ROMEOVILLE IL
300 AM CST TUE NOV 21 2017

NOTE: "FAIR" INDICATES FEW OR NO CLOUDS BELOW 12,000 FEET WITH NO
SIGNIFICANT WEATHER AND/OR OBSTRUCTIONS TO VISIBILITY.

* THESE STATIONS ARE NOT UNDER NWS QUALITY CONTROL. THEY ALSO MAY NOT
  REPORT WEATHER SUCH AS PRECIPITATION OR FOG.

ILZ005-006-012>014-019>023-211000-
NORTHEAST ILLINOIS

CITY           SKY/WX    TMP DP  RH WIND       PRES   REMARKS
OHARE          CLOUDY    44  31  60 SW18G26   29.65F
MIDWAY         CLOUDY    43  32  65 S13       29.68S
AURORA         CLOUDY    41  32  70 S13       29.68S
LANSING*       PTCLDY    40  33  74 SW18G24   29.71F
JOLIET*        MOCLDY    45  32  62 SW10G18   29.70S
WAUKEGAN       CLOUDY    46  32  58 SW20G30   29.61S
DUPAGE AIRPORT PTCLDY    42  32  67 SW17G30   29.66S
WHEELING       PTCLDY    45  32  60 SW14      29.66S
KANKAKEE*      CLOUDY    40  31  70 SW15G24   29.74S
MORRIS*        MOCLDY    42  32  66 SW21G28   29.69S
LEWIS AIRPORT* MOCLDY    42  32  67 SW17G25   29.68F
NORTHERLY ISL    N/A     43  30  60 S13         N/A
$$

WIZ051-052-058>065-066-070>072-211000-
SOUTHEAST WISCONSIN

CITY           SKY/WX    TMP DP  RH WIND       PRES   REMARKS
MILWAUKEE      CLOUDY    44  33  65 SW15      29.57S
KENOSHA*       CLOUDY    45  31  58 SW17G30   29.60R
RACINE*        CLOUDY    46  32  58 SW16G25   29.60S
WAUKESHA       CLOUDY    43  30  61 SW15G23   29.58S
WEST BEND      CLOUDY    45  30  57 SW14G22   29.53S
$$

INZ001>003-010>013-019-020-211000-
NORTHWEST INDIANA

CITY           SKY/WX    TMP DP  RH WIND       PRES   REMARKS
GARY*          CLOUDY    44  29  56 S13G22    29.70F
MICHIGAN CITY* NOT AVBL
RENSSELAER*    NOT AVBL
VALPARAISO     PTCLDY    43  30  60 SW18G26   29.73F
$$

LMZ740>746-211000-
SOUTHERN LAKE MICHIGAN

STATION/POSITION TIME  SKY/WX   TEMP WIND        PRES    VSBY
                                AIR  DIR/SP/G
                 (UTC)          (F)  (DEG/KT/KT) (MB)    (MI)
HARRISON CRIB    0840            44  210/ 28/ 33   N/A
BURNHAM HARBOR   0900            43  210/ 11/ 17   N/A
CALUMET HARBOR   0830            42  190/ 17/ 24 1004.8F
BURNS HARBOR     0840            44  200/ 22/ 29 1006.1F
MICHIGAN CITY    0840            44  190/ 25/ 28   N/A
$$

ABBREVIATIONS USED IN REMARKS
   TC - TEMPERATURE IN CELSIUS
  WCI - WIND CHILL INDEX
   HX - HEAT INDEX
  VSB - VISIBILITY
$$




USA.gov is the U.S. government's official web portal to all federal, state and local government web resources and services.